Regional Weather Roundup
Issued by NWS Wilmington, NC

Home | Current Version | Previous Version | Text Only | Print | Product List | Glossary On
Versions: 1 2 3 4 5 6 7 8 9 10 11 12 13 14 15 16 17 18 19 20 21 22 23 24 25 26 27 28 29 30 31 32 33 34 35 36 37 38 39 40 41 42 43 44 45 46 47 48 49 50
340
ASUS42 KILM 201614
RWRILM
RWRILM
REGIONAL HOURLY WEATHER ROUNDUP
NATIONAL WEATHER SERVICE WILMINGTON NC
1200 PM EDT SUN AUG 20 2017

NOTE: "FAIR" INDICATES FEW OR NO CLOUDS BELOW 12,000 FEET WITH NO
SIGNIFICANT WEATHER AND/OR OBSTRUCTIONS TO VISIBILITY.

...............WFO WILMINGTON COUNTY WARNING AREA...............

......COASTAL NC AND SC COUNTIES......

CITY           SKY/WX    TMP DP  RH WIND       PRES   REMARKS
WILMINGTON     PTSUNNY   86  78  77 E8        30.09F HX  98
N MYRTLE BEACH PTSUNNY   86  79  79 SE7       30.09S HX  99
MYRTLE BEACH   MOSUNNY   88  79  74 MISG      30.09R HX 102

......INLAND NC AND SC COUNTIES.......

CITY           SKY/WX    TMP DP  RH WIND       PRES   REMARKS
LUMBERTON      MOSUNNY   88  75  65 SE6       30.09S HX  97
ELIZABETHTOWN  NOT AVBL
WHITEVILLE     MOSUNNY   84  78  81 NE5       30.10S HX  95
FLORENCE       MOSUNNY   89  73  59 CALM      30.09S HX  97
DARLINGTON     MOSUNNY   87  77  72 E5        30.10S HX  99
KINGSTREE      FAIR      90  68  48 CALM      30.09R HX  93
HARTSVILLE     FAIR      88  73  62 E3        30.10S HX  96
BENNETTSVILLE  FAIR      91  73  55 E9        30.09S HX 100
CONWAY         FAIR      88  75  66 CALM      30.09S HX  97
GEORGETOWN     FAIR      90  73  58 CALM      30.09S HX  98
MARION         FAIR      88  72  58 CALM      30.09S HX  94

....................REST OF NORTH CAROLINA......................

.........EASTERN NC.........

CITY           SKY/WX    TMP DP  RH WIND       PRES   REMARKS
CAPE HATTERAS  CLOUDY    80  77  90 SW5       30.11R
JACKSONVILLE   PTSUNNY   84  77  79 E7        30.11S HX  94
MOREHEAD CITY  CLOUDY    83  78  85 NW5       30.09F HX  93
KENANSVILLE    SUNNY     88  73  62 E5        30.10F HX  96
NEW BERN       MOSUNNY   86  76  71 CALM      30.11S HX  96
ELIZABETH CITY SUNNY     89  75  63 NE6       30.10S HX  99

.........CENTRAL NC.........

CITY           SKY/WX    TMP DP  RH WIND       PRES   REMARKS
RALEIGH DURHAM MOSUNNY   90  67  46 VRB3      30.13R HX  93
ROCKY MOUNT    SUNNY     89  71  55 NE6       30.11S HX  95
ROANOKE RAPIDS NOT AVBL
FAYETTEVILLE   MOSUNNY   89  75  63 NE5       30.10S HX  99
HOFFMAN        MOSUNNY   91  70  50 SE6       30.10R HX  96

.........WESTERN NC.........

CITY           SKY/WX    TMP DP  RH WIND       PRES   REMARKS
CHARLOTTE      MOSUNNY   89  70  53 VRB5      30.13S HX  94
GREENSBORO     MOSUNNY   86  66  51 VRB5      30.14S
HICKORY        NOT AVBL
BOONE          NOT AVBL
ASHEVILLE      NOT AVBL

.....................REST OF SOUTH CAROLINA.....................

.........EASTERN SC.........

CITY           SKY/WX    TMP DP  RH WIND       PRES   REMARKS
CHARLESTON     CLOUDY    88  75  65 CALM      30.07S HX  97
BEAUFORT MCAS  SUNNY     90  79  70 CALM      30.07S HX 106
HILTON HEAD    MOSUNNY   88  79  74 SE6       30.08S HX 102

.........CENTRAL SC.........

CITY           SKY/WX    TMP DP  RH WIND       PRES   REMARKS
COLUMBIA       PTSUNNY   92  72  51 E7        30.07S HX  99
ORANGEBURG     SUNNY     91  70  49 S8        30.08S HX  96
SUMTER SHAW    SUNNY     92  69  47 CALM      30.06S HX  96

.........WESTERN SC.........

CITY           SKY/WX    TMP DP  RH WIND       PRES   REMARKS
GREENVILLE     NOT AVBL
ROCK HILL      SUNNY     88  72  58 CALM      30.13S HX  94
ANDERSON       SUNNY     88  67  49 CALM      30.12S HX  91
CLEMSON        NOT AVBL
GREENWOOD      SUNNY     88  69  53 CALM      30.12F HX  92


...................COASTAL AND OFFSHORE REPORTS..................

................LOCAL PIERS AND NC RESERVE................


STATION/POSITION TIME  SKY/WX   TEMP    WIND        PRES    VSBY
                                AIR SEA DIR/SP/G
                 (UTC)          (F)     (DEG/KT/KT) (MB)    (MI)
JOHNY MRCER PIER 1536            81 84   60/  7/  9 1018.3F
NC RESRV MASNBRO NOT AVBL
OCEAN CREST PIER NOT AVBL
SPRINGMAID  PIER 1548                               1018.3S


................COASTAL AND OFFSHORE BUOYS................


STATION/POSITION TIME  SKY/WX   TEMP    WIND        PRES    VSBY
                                AIR SEA DIR/SP/G
                 (UTC)          (F)     (DEG/KT/KT) (MB)    (MI)
DIMNDSHOAL 41025 1550            80 84  310/  6/  6 1019.1F
WVE H/P(F/S)=  3/ 8 SWL H/P/D(F/S/D)=  2/130/ 8

CAPE LOOKOUT     1600            80      80/  1/  2 1018.6F
ONSLOW BAY 41036 NOT AVBL
ONSLOW BAY 41064 1508            74 83  130/  2/  4 1019.2F
ONSLOW BAY 41159 1543               83                N/A
WVE H/P(F/S)=  3/ 8

MASNBO INL 41110 1559               84                N/A
WVE H/P(F/S)=  3/ 8

WILM HARBR 41108 1530               85                N/A
WVE H/P(F/S)=  3/ 5

27SE WRITB 41037 1508            81 83   70/  8/ 12 1019.4S
FRYING PAN 41013 1600            86 84   CALM  /  2 1018.9
SUNST NRSH 41024 1508            83 85   70/  4/  4 1019.0R
CAPRS NRSH 41029 1508            89 87   80/  2/  6 1018.5R
EDISTO     41004 1600            85 85   CALM  /  2 1018.5


..........OFFSHORE BUOYS BEYOND 100 NM OFFSHORE...........
.....IN A TRIANGLE---HAT TO BERMUDA TO BAHAMAS TO HAT.....


STATION/POSITION TIME  SKY/WX   TEMP    WIND        PRES    VSBY
                                AIR SEA DIR/SP/G
                 (UTC)          (F)     (DEG/KT/KT) (MB)    (MI)
150E HAT   41001 1600               82  210/  4/  6 1020.1
W BERMUDA  41048 1600            83 82  220/  2/  2 1021.9
ATLANTIC S 41049 1550            84 85   90/ 12/ 14 1022.2F
WVE H/P(F/S)=  6/ 8 SWL H/P/D(F/S/D)=  5/130/ 8

E BAHAMAS  41046 1550            81 84   80/ 21/ 27 1016.0F
WVE H/P(F/S)=  9/ 9 SWL H/P/D(F/S/D)=  5/120/ 9

NE BAHAMAS 41047 1600            84 85  110/ 14/ 16 1020.2
120E CANVRL41010 1600            79 85  270/  6/  8 1019.0

END




USA.gov is the U.S. government's official web portal to all federal, state and local government web resources and services.